Hourly Weather Bolshie Ledinki

Today, 30 July, Friday

Time Temperature Precipitation Wind Pressure Humidity
00:00 +19°C° 0.1 mm 1 mps 736 mmHg 85%
01:00 +18°C° 0.1 mm 2 mps 736 mmHg 87%
02:00 +18°C° 0.1 mm 2 mps 736 mmHg 90%
03:00 +18°C° 0.3 mm 2 mps 736 mmHg 92%
04:00 +19°C° 0.3 mm 1 mps 736 mmHg 94%
05:00 +19°C° 0.3 mm 1 mps 736 mmHg 96%
06:00 +19°C° 0.2 mm 1 mps 736 mmHg 96%
07:00 +19°C° 0.2 mm 1 mps 736 mmHg 95%
08:00 +19°C° 0.2 mm 1 mps 735 mmHg 95%
09:00 +19°C° 0.4 mm 2 mps 735 mmHg 91%
10:00 +20°C° 0.4 mm 2 mps 735 mmHg 88%
11:00 +21°C° 0.4 mm 3 mps 735 mmHg 84%
12:00 +22°C° 0.4 mm 3 mps 735 mmHg 80%
13:00 +22°C° 0.4 mm 3 mps 735 mmHg 76%
14:00 +24°C° 0.4 mm 3 mps 735 mmHg 73%
15:00 +24°C° 0.1 mm 3 mps 735 mmHg 67%
16:00 +24°C° 0.1 mm 3 mps 734 mmHg 62%
17:00 +24°C° 0.1 mm 3 mps 734 mmHg 57%
18:00 +22°C° 0 mm 3 mps 734 mmHg 60%
19:00 +21°C° 0 mm 3 mps 734 mmHg 63%
20:00 +20°C° 0 mm 3 mps 734 mmHg 66%
21:00 +19°C° 0 mm 3 mps 734 mmHg 71%
22:00 +18°C° 0 mm 3 mps 734 mmHg 76%
23:00 +17°C° 0 mm 3 mps 735 mmHg 81%

Tomorrow, 31 July, Saturday

Time Temperature Precipitation Wind Pressure Humidity
00:00 +16°C° 0 mm 3 mps 734 mmHg 81%
01:00 +14°C° 0 mm 3 mps 734 mmHg 81%
02:00 +14°C° 0 mm 3 mps 734 mmHg 81%
03:00 +14°C° 0 mm 3 mps 734 mmHg 78%
04:00 +14°C° 0 mm 4 mps 734 mmHg 75%
05:00 +15°C° 0 mm 4 mps 734 mmHg 72%
06:00 +17°C° 0 mm 5 mps 734 mmHg 66%
07:00 +19°C° 0 mm 5 mps 734 mmHg 60%
08:00 +21°C° 0 mm 6 mps 734 mmHg 53%
09:00 +21°C° 0 mm 6 mps 734 mmHg 53%
10:00 +22°C° 0 mm 6 mps 734 mmHg 52%
11:00 +23°C° 0 mm 6 mps 734 mmHg 51%
12:00 +23°C° 0.1 mm 6 mps 735 mmHg 53%
13:00 +23°C° 0.1 mm 6 mps 735 mmHg 54%
14:00 +23°C° 0.1 mm 6 mps 735 mmHg 56%
15:00 +23°C° 0.1 mm 5 mps 735 mmHg 55%
16:00 +23°C° 0.1 mm 5 mps 735 mmHg 54%
17:00 +23°C° 0.1 mm 5 mps 736 mmHg 54%
18:00 +22°C° 0 mm 4 mps 736 mmHg 60%
19:00 +21°C° 0 mm 3 mps 736 mmHg 67%
20:00 +19°C° 0 mm 3 mps 736 mmHg 74%
21:00 +18°C° 0 mm 3 mps 737 mmHg 79%
22:00 +17°C° 0 mm 2 mps 737 mmHg 85%
23:00 +16°C° 0 mm 2 mps 737 mmHg 90%

Day after tomorrow, 1 August, Sunday

Time Temperature Precipitation Wind Pressure Humidity
00:00 +16°C° 0 mm 2 mps 737 mmHg 92%
01:00 +16°C° 0 mm 2 mps 738 mmHg 93%
02:00 +16°C° 0 mm 2 mps 738 mmHg 94%
03:00 +16°C° 0 mm 2 mps 738 mmHg 92%
04:00 +16°C° 0 mm 2 mps 738 mmHg 89%
05:00 +17°C° 0 mm 2 mps 738 mmHg 86%
06:00 +17°C° 0 mm 2 mps 738 mmHg 82%
07:00 +18°C° 0 mm 3 mps 738 mmHg 79%
08:00 +19°C° 0 mm 3 mps 738 mmHg 75%
09:00 +18°C° 0.1 mm 3 mps 738 mmHg 80%
10:00 +18°C° 0.1 mm 2 mps 738 mmHg 84%
11:00 +17°C° 0.1 mm 2 mps 738 mmHg 89%
12:00 +18°C° 0 mm 2 mps 738 mmHg 87%
13:00 +19°C° 0 mm 2 mps 738 mmHg 85%
14:00 +20°C° 0 mm 3 mps 738 mmHg 83%
15:00 +21°C° 0 mm 3 mps 738 mmHg 80%
16:00 +21°C° 0 mm 3 mps 737 mmHg 77%
17:00 +22°C° 0 mm 3 mps 737 mmHg 75%
18:00 +21°C° 0 mm 2 mps 737 mmHg 79%
19:00 +20°C° 0 mm 2 mps 737 mmHg 84%
20:00 +19°C° 0 mm 1 mps 737 mmHg 89%
21:00 +19°C° 0 mm 1 mps 737 mmHg 91%
22:00 +18°C° 0 mm 1 mps 737 mmHg 93%
23:00 +16°C° 0 mm 2 mps 737 mmHg 95%

2 August, Monday

Time Temperature Precipitation Wind Pressure Humidity
00:00 +16°C° 0 mm 2 mps 737 mmHg 95%
01:00 +16°C° 0 mm 2 mps 738 mmHg 96%
02:00 +16°C° 0 mm 2 mps 738 mmHg 96%
03:00 +16°C° 0 mm 2 mps 738 mmHg 95%
04:00 +16°C° 0 mm 2 mps 737 mmHg 93%
05:00 +18°C° 0 mm 1 mps 737 mmHg 92%
06:00 +19°C° 0 mm 2 mps 737 mmHg 81%
07:00 +21°C° 0 mm 2 mps 737 mmHg 71%
08:00 +24°C° 0 mm 2 mps 737 mmHg 60%
09:00 +25°C° 0 mm 2 mps 737 mmHg 55%
10:00 +26°C° 0 mm 3 mps 737 mmHg 49%
11:00 +27°C° 0 mm 3 mps 737 mmHg 44%
12:00 +25°C° 0.3 mm 3 mps 736 mmHg 56%
13:00 +24°C° 0.3 mm 3 mps 736 mmHg 68%
14:00 +21°C° 0.3 mm 3 mps 736 mmHg 80%
15:00 +21°C° 0.2 mm 3 mps 735 mmHg 81%
16:00 +22°C° 0.2 mm 3 mps 734 mmHg 82%
17:00 +24°C° 0.2 mm 3 mps 733 mmHg 83%
18:00 +21°C° 3.2 mm 3 mps 733 mmHg 88%
19:00 +20°C° 3.2 mm 3 mps 733 mmHg 92%
20:00 +19°C° 3.2 mm 3 mps 733 mmHg 97%
21:00 +19°C° 0.4 mm 3 mps 732 mmHg 97%
22:00 +18°C° 0.4 mm 3 mps 732 mmHg 98%
23:00 +17°C° 0.4 mm 3 mps 732 mmHg 98%

3 August, Tuesday

Time Temperature Precipitation Wind Pressure Humidity
00:00 +17°C° 0.1 mm 3 mps 732 mmHg 98%
01:00 +17°C° 0.1 mm 4 mps 732 mmHg 97%
02:00 +17°C° 0.1 mm 4 mps 732 mmHg 96%
03:00 +15°C° 0.1 mm 4 mps 733 mmHg 96%
04:00 +14°C° 0.1 mm 5 mps 734 mmHg 96%
05:00 +14°C° 0.1 mm 5 mps 735 mmHg 95%
06:00 +14°C° 0 mm 5 mps 735 mmHg 91%
07:00 +15°C° 0 mm 5 mps 736 mmHg 87%
08:00 +15°C° 0 mm 5 mps 736 mmHg 84%
09:00 +17°C° 0 mm 5 mps 737 mmHg 73%
10:00 +20°C° 0 mm 5 mps 737 mmHg 63%
11:00 +22°C° 0 mm 4 mps 737 mmHg 52%
12:00 +22°C° 0.2 mm 5 mps 738 mmHg 56%
13:00 +22°C° 0.2 mm 5 mps 738 mmHg 59%
14:00 +22°C° 0.2 mm 5 mps 738 mmHg 62%
15:00 +21°C° 0.2 mm 5 mps 738 mmHg 64%
16:00 +21°C° 0.2 mm 4 mps 738 mmHg 66%
17:00 +20°C° 0.2 mm 4 mps 738 mmHg 68%
18:00 +19°C° 0.2 mm 3 mps 738 mmHg 75%
19:00 +17°C° 0.2 mm 3 mps 738 mmHg 82%
20:00 +15°C° 0.2 mm 2 mps 739 mmHg 88%
21:00 +15°C° 0 mm 2 mps 739 mmHg 89%
22:00 +14°C° 0 mm 2 mps 739 mmHg 90%
23:00 +13°C° 0 mm 2 mps 739 mmHg 91%

4 August, Wednesday

Time Temperature Precipitation Wind Pressure Humidity
00:00 +13°C° 0 mm 2 mps 740 mmHg 93%
01:00 +12°C° 0 mm 2 mps 740 mmHg 95%
02:00 +12°C° 0 mm 2 mps 740 mmHg 97%
03:00 +12°C° 0 mm 2 mps 741 mmHg 97%
04:00 +12°C° 0 mm 2 mps 741 mmHg 97%
05:00 +12°C° 0 mm 2 mps 741 mmHg 97%
06:00 +13°C° 0 mm 3 mps 742 mmHg 88%
07:00 +16°C° 0 mm 3 mps 742 mmHg 79%
08:00 +17°C° 0 mm 4 mps 742 mmHg 70%
09:00 +18°C° 0 mm 4 mps 743 mmHg 63%
10:00 +20°C° 0 mm 4 mps 743 mmHg 55%
11:00 +21°C° 0 mm 4 mps 743 mmHg 48%
12:00 +21°C° 0 mm 4 mps 743 mmHg 45%
13:00 +22°C° 0 mm 4 mps 743 mmHg 42%
14:00 +22°C° 0 mm 4 mps 744 mmHg 39%
15:00 +22°C° 0 mm 4 mps 744 mmHg 42%
16:00 +21°C° 0 mm 4 mps 744 mmHg 46%
17:00 +21°C° 0 mm 3 mps 744 mmHg 49%
18:00 +19°C° 0 mm 3 mps 745 mmHg 60%
19:00 +16°C° 0 mm 2 mps 745 mmHg 70%
20:00 +14°C° 0 mm 2 mps 745 mmHg 81%
21:00 +13°C° 0 mm 2 mps 745 mmHg 84%
22:00 +13°C° 0 mm 1 mps 746 mmHg 88%
23:00 +12°C° 0 mm 1 mps 746 mmHg 91%
Show more

We Need Your Consent

Meteoprog and our Service Providers may store and access personal data such as cookies, device identifiers or other similar technologies on your device and process such data to personalise content and ads, as well as provide social media features and to analyse the traffic.

  • Store and/or access information on your device

    Cookies, device identifiers or other information can be stored or accessed on your device for the purposes indicated above.

  • Personalised ads and content, ad and content measurement, audience insights, and products development

    Ads and content can be personalised based on a profile. More data can be added to better personalise ads and content. Ad and content performance can be measured. Insights about the audience who saw the ads and content can be derived. Such data can be used to develop or improve user’s experience, systems and software.

By clicking ‘I Agree’ you will allow the use of indicated cookies, device identifiers, web beacons or other similar technologies. Your settings can be changed in the browser on your device.

For certain purposes, legitimate interests may be relied on, rather than consent. You can read more about this in our Privacy and Cookie Policy.